This is the latest recevied weather packets stored in our database for station/object N7TUG-8. If no packets are shown the sender has not sent any weather packets the latest 10 day(s).
| Time | Temp. | Humidity | Pressure | Rain* | Wind** | Luminosity | Snow |
|---|---|---|---|---|---|---|---|
| 1777186452 | 10.56° C | 59% | 1008.5 hPa | 0 mm | 0.45 m/s, 233° | - | - |
| 1777185971 | 10.56° C | 60% | 1008.5 hPa | 0 mm | 0.45 m/s, 252° | - | - |
| 1777185196 | 11.11° C | 60% | 1008.3 hPa | 0 mm | 0.45 m/s, 292° | - | - |
| 1777184883 | 11.11° C | 59% | 1008.5 hPa | 0 mm | 0.45 m/s, 282° | - | - |
| 1777184391 | 11.11° C | 59% | 1008.4 hPa | 0 mm | 0.45 m/s, 284° | - | - |
| 1777184067 | 11.11° C | 58% | 1008.4 hPa | 0 mm | 0.89 m/s, 314° | - | - |
| 1777183481 | 11.67° C | 57% | 1008.5 hPa | 0 mm | 0.45 m/s, 326° | - | - |
| 1777183288 | 11.67° C | 57% | 1008.5 hPa | 0 mm | 0.45 m/s, 326° | - | - |
| 1777182626 | 11.67° C | 56% | - | 0 mm | 0.45 m/s, 306° | - | - |
| 1777182506 | 11.67° C | 56% | 1008.4 hPa | 0 mm | 0.45 m/s, 29° | - | - |
| 1777182474 | 11.67° C | 56% | 1008.4 hPa | 0 mm | 0.45 m/s, 29° | - | - |
| 1777181761 | 11.67° C | 55% | 1008.3 hPa | 0 mm | 0 m/s | - | - |
| 1777181573 | 11.67° C | 55% | 1008.3 hPa | 0 mm | 0.45 m/s, 350° | - | - |
| 1777180966 | 11.67° C | 53% | 1008.4 hPa | 0 mm | 0.45 m/s, 343° | - | - |
| 1777180758 | 12.22° C | 53% | 1008.4 hPa | 0 mm | 0.45 m/s, 306° | - | - |
| 1777180051 | 12.78° C | 53% | 1008.4 hPa | 0 mm | 0.45 m/s, 267° | - | - |
| 1777179893 | 12.78° C | 52% | 1008.5 hPa | 0 mm | 0.45 m/s, 276° | - | - |
| 1777179281 | 13.33° C | 52% | 1008.6 hPa | 0 mm | 0 m/s | - | - |
| 1777178415 | 13.89° C | 51% | 1008.5 hPa | 0 mm | 0.45 m/s, 186° | - | - |
| 1777178113 | 14.44° C | 51% | 1008.6 hPa | 0 mm | 0.45 m/s, 184° | - | - |
| 1777177476 | 14.44° C | 46% | 1008.5 hPa | 0 mm | 0 m/s | - | - |
| 1777177378 | 14.44° C | 46% | 1008.5 hPa | 0 mm | 0 m/s | - | - |
| 1777176678 | 15° C | 45% | 1008.4 hPa | 0 mm | 0.45 m/s, 258° | - | - |
| 1777175811 | 15° C | 45% | 1008.4 hPa | 0 mm | 0.45 m/s, 295° | - | - |
| 1777174916 | 15° C | 45% | 1008.2 hPa | 0 mm | 0.89 m/s, 320° | - | - |
* Rain latest hour (hover to see other rain measurements)
** Current wind speed in m/s (hover to see current wind gust speed)